This is the latest recevied weather packets stored in our database for station/object OE7AOT-2. If no packets are shown the sender has not sent any weather packets the latest 1 day(s).
| Time | Temp. | Humidity | Pressure | Rain* | Wind** | Luminosity | Snow |
|---|---|---|---|---|---|---|---|
| 1778082091 | 23.33° C | 66% | 914.5 hPa | 0 mm | - | - | - |
| 1778081954 | 23.33° C | 66% | 914.5 hPa | 0 mm | - | - | - |
| 1778081886 | 23.89° C | 65% | 914.4 hPa | 0 mm | - | - | - |
| 1778081749 | 23.89° C | 65% | 914.4 hPa | 0 mm | - | - | - |
| 1778081613 | 24.44° C | 64% | 914.5 hPa | 0 mm | - | - | - |
| 1778081338 | 25° C | 64% | 914.4 hPa | 0 mm | - | - | - |
| 1778081270 | 25.56° C | 63% | 914.2 hPa | 0 mm | - | - | - |
| 1778081133 | 26.11° C | 63% | 914.3 hPa | 0 mm | - | - | - |
| 1778080996 | 26.67° C | 62% | 914.2 hPa | 0 mm | - | - | - |
| 1778080654 | 26.67° C | 62% | 914.2 hPa | 0 mm | - | - | - |
| 1778080380 | 24.44° C | 66% | 914.2 hPa | 0 mm | - | - | - |
| 1778080175 | 24.44° C | 66% | 914.3 hPa | 0 mm | - | - | - |
| 1778080106 | 24.44° C | 66% | 914.2 hPa | 0 mm | - | - | - |
| 1778080038 | 24.44° C | 66% | 914.1 hPa | 0 mm | - | - | - |
| 1778079901 | 24.44° C | 66% | 914.2 hPa | 0 mm | - | - | - |
| 1778079559 | 24.44° C | 65% | 914.4 hPa | 0 mm | - | - | - |
| 1778079422 | 25° C | 64% | 914.2 hPa | 0 mm | - | - | - |
| 1778079285 | 25° C | 63% | 914.2 hPa | 0 mm | - | - | - |
| 1778079148 | 25.56° C | 62% | 914.2 hPa | 0 mm | - | - | - |
| 1778078943 | 26.11° C | 62% | 914.3 hPa | 0 mm | - | - | - |
| 1778078806 | 26.67° C | 61% | 914.2 hPa | 0 mm | - | - | - |
| 1778078327 | 29.44° C | 56% | 913.9 hPa | 0 mm | - | - | - |
| 1778078190 | 30.56° C | 55% | 914 hPa | 0 mm | - | - | - |
| 1778078053 | 31.67° C | 54% | 913.9 hPa | 0 mm | - | - | - |
| 1778077711 | 37.22° C | 46% | 913.9 hPa | 0 mm | - | - | - |
* Rain latest hour (hover to see other rain measurements)
** Current wind speed in m/s (hover to see current wind gust speed)